Flag for Germany Weather past 2 weeks in Nordkirchen, North Rhine-Westphalia, Germany

Now
30 °F

Passing clouds.


Feels Like: 30 °F
Forecast: 35 / 41 °F
Wind: 1 mph from Northwest

Location: Muenster / Osnabrueck

Current Time: Jan 25, 2015 at 5:25:37 AM

Latest Report: Jan 25, 2015 at 4:20 AM


Visibility: N/A

Pressure: 30.30 "Hg

Humidity: 100%

Dew point: 30 °F

Location of NordkirchenLocation

Historic Weather in Nordkirchen — Graph

°F

Nordkirchen temperature yesterday

Maximum temperature yesterday: 37 °F (at 5:20 PM)
Minimum temperature yesterday: 30 °F (at 12:20 AM)
Average temperature yesterday: 32 °F

Past Weeks' High & Low Weather Summary

 TemperatureHumidityPressure
High55 °F (Jan 10, 4:50 AM)100% (Jan 17, 2:50 AM)30.30 "Hg (Jan 17, 2:50 AM)
Low23 °F (Jan 21, 1:50 AM)57% (Jan 10, 5:50 PM)29.39 "Hg (Jan 15, 3:50 PM)
Average38 °F86%29.88 "Hg
* Reported Jan 10 3:20 AM — Jan 25 3:50 AM, Nordkirchen, Weather by CustomWeather, © 2014

Note: Actual official high and low records may vary slightly from our data, if they occured in-between our weather recording intervals... More about our weather records

Advertising

Nordkirchen weather history for previous 24 hours

 ConditionsComfort  
Time TempWeatherWind HumidityBarometerVisibility
3:50 AM
Jan 25
30 °FPassing clouds.6 mph100%30.30 "HgN/A
3:20 AM30 °FPassing clouds.5 mph100%30.30 "HgN/A
2:50 AM30 °FPassing clouds.5 mph100%30.30 "HgN/A
2:20 AM32 °FPassing clouds.6 mph100%30.30 "HgN/A
1:50 AM32 °FPartly cloudy.7 mph100%30.30 "HgN/A
1:20 AM32 °FScattered showers. Passing clouds.7 mph100%30.27 "HgN/A
12:50 AM30 °FSnow flurries. Passing clouds.5 mph100%30.27 "HgN/A
12:20 AM30 °FPassing clouds.5 mph100%30.27 "HgN/A
11:50 PM
Jan 24
30 °FClear.5 mph100%30.27 "Hg10 mi
10:20 PM30 °FPassing clouds.5 mph100%30.24 "HgN/A
9:50 PM32 °FPassing clouds.6 mph100%30.24 "HgN/A
9:20 PM30 °FPassing clouds.7 mph100%30.24 "HgN/A
8:50 PM30 °FPassing clouds.6 mph100%30.21 "HgN/A
8:20 PM32 °FPassing clouds.5 mph100%30.21 "HgN/A
7:50 PM32 °FPassing clouds.5 mph100%30.21 "HgN/A
7:20 PM32 °FClear.6 mph100%30.18 "Hg10 mi
6:50 PM32 °FClear.6 mph100%30.18 "Hg10 mi
6:20 PM34 °FClear.8 mph100%30.15 "Hg10 mi
5:50 PM36 °FPassing clouds.7 mph93%30.15 "HgN/A
5:20 PM37 °FPassing clouds.8 mph100%30.12 "Hg5 mi
4:50 PM36 °FFog.6 mph100%30.12 "Hg4 mi
4:20 PM34 °FFog.2 mph100%30.09 "Hg4 mi
3:50 PM34 °FScattered clouds.3 mph100%30.09 "Hg4 mi
3:20 PM36 °FScattered clouds.3 mph93%30.07 "Hg4 mi
2:50 PM34 °FPartly sunny.5 mph100%30.07 "Hg5 mi
2:20 PM34 °FPartly sunny.5 mph100%30.07 "Hg5 mi
1:50 PM34 °FBroken clouds.3 mph100%30.04 "Hg5 mi
1:20 PM34 °FBroken clouds.5 mph100%30.04 "Hg5 mi
12:50 PM34 °FLight snow. Broken clouds.5 mph100%30.04 "Hg2 mi
12:20 PM32 °FSnow. Broken clouds.6 mph100%30.04 "Hg1 mi
11:50 AM32 °FSnow. Partly sunny.6 mph100%30.04 "Hg1 mi
11:20 AM32 °FSnow. Partly sunny.7 mph100%30.04 "Hg1 mi
10:50 AM32 °FSnow. Partly sunny.6 mph100%30.04 "Hg1 mi
10:20 AM30 °FHeavy snow. Partly sunny.7 mph100%30.04 "Hg1 mi
9:50 AM30 °FSnow. Partly sunny.7 mph100%30.04 "Hg1 mi
9:20 AM30 °FSnow. Broken clouds.7 mph100%30.04 "Hg1 mi
8:50 AM30 °FLight snow. Partly sunny.8 mph93%30.04 "Hg1 mi
8:20 AM32 °FLight snow. Passing clouds.7 mph87%30.04 "Hg4 mi
7:50 AM32 °FPassing clouds.7 mph87%30.04 "Hg5 mi
7:20 AM32 °FPassing clouds.8 mph87%30.04 "Hg4 mi
6:50 AM32 °FPassing clouds.8 mph87%30.04 "Hg4 mi
6:20 AM32 °FPassing clouds.9 mph87%30.07 "Hg4 mi
5:50 AM32 °FPassing clouds.10 mph87%30.07 "Hg4 mi
5:20 AM32 °FPassing clouds.10 mph87%30.07 "Hg4 mi
Weather by CustomWeather, © 2014

See weather overviewHow to use our weather pages